FW9488 Weather Reports


Display with metric or nautical units.
time (UTC)temp
F
wind
direction
speed
MPH
gust
MPH
rain 1hr
in
rain 24hr
in
rain mn
in
humidity
%
barometer
mb
20260506223059 85 346 2.0 13.0 0.00 0.00 0.00 18 1013.8
20260506221549 84 24 3.0 12.0 0.00 0.00 0.00 18 1014.0
20260506214549 83 276 4.0 10.0 0.00 0.00 0.00 19 1014.4
20260506213049 82 130 3.0 11.0 0.00 0.00 0.00 20 1014.9
20260506211554 82 63 2.0 10.0 0.00 0.00 0.00 21 1015.2
20260506210051 82 247 6.0 11.0 0.00 0.00 0.00 21 1015.3
20260506204554 81 258 3.0 8.0 0.00 0.00 0.00 23 1015.4
20260506203058 80 238 6.0 10.0 0.00 0.00 0.00 24 1015.5
20260506201553 79 352 2.0 9.0 0.00 0.00 0.00 26 1015.8
20260506200047 78 306 1.0 10.0 0.00 0.00 0.00 26 1015.9
20260506194552 78 286 5.0 10.0 0.00 0.00 0.00 27 1016.1
20260506193053 77 263 4.0 9.0 0.00 0.00 0.00 28 1016.2
20260506191548 76 109 2.0 10.0 0.00 0.00 0.00 28 1016.3
20260506190051 75 303 4.0 13.0 0.00 0.00 0.00 30 1016.7
20260506184550 74 248 4.0 9.0 0.00 0.00 0.00 30 1016.8
20260506183046 72 89 2.0 9.0 0.00 0.00 0.00 31 1017.1
20260506181600 72 122 1.0 7.0 0.00 0.00 0.00 32 1017.1
20260506180055 71 250 2.0 6.0 0.00 0.00 0.00 32 1017.3
20260506174549 70 326 3.0 8.0 0.00 0.00 0.00 33 1017.5
20260506173119 69 26 4.0 9.0 0.00 0.00 0.00 33 1017.5
20260506171555 68 351 5.0 9.0 0.00 0.00 0.00 34 1017.3
20260506170055 67 302 2.0 4.0 0.00 0.00 0.00 36 1017.3
20260506164548 67 0 1.0 5.0 0.00 0.00 0.00 37 1017.2
20260506163049 66 281 1.0 5.0 0.00 0.00 0.00 37 1017.3
20260506161550 65 59 0.0 5.0 0.00 0.00 0.00 39 1017.2
20260506160100 65 242 1.0 5.0 0.00 0.00 0.00 38 1017.3
20260506154552 63 181 0.0 2.0 0.00 0.00 0.00 40 1017.2
20260506153054 62 0 1.0 5.0 0.00 0.00 0.00 41 1017.2
20260506151551 62 0 1.0 3.0 0.00 0.00 0.00 40 1017.2
20260506150053 60 0 0.0 0.0 0.00 0.00 0.00 43 1017.2
20260506144553 58 0 0.0 0.0 0.00 0.00 0.00 45 1017.2
20260506143049 57 0 0.0 0.0 0.00 0.00 0.00 46 1016.9
20260506141551 55 0 0.0 0.0 0.00 0.00 0.00 47 1016.8
20260506140049 53 0 0.0 0.0 0.00 0.00 0.00 49 1016.7
20260506134551 50 0 0.0 0.0 0.00 0.00 0.00 53 1016.6
20260506133101 48 0 0.0 0.0 0.00 0.00 0.00 54 1016.2
20260506131600 46 0 0.0 0.0 0.00 0.00 0.00 56 1016.0
20260506130054 46 0 1.0 2.0 0.00 0.00 0.00 55 1015.8
20260506124549 47 0 0.0 0.0 0.00 0.00 0.00 54 1015.7
20260506123049 47 0 0.0 2.0 0.00 0.00 0.00 52 1015.5
20260506121545 47 0 0.0 0.0 0.00 0.00 0.00 52 1015.2
20260506120050 48 0 0.0 0.0 0.00 0.00 0.00 51 1015.2
20260506114553 48 0 0.0 1.0 0.00 0.00 0.00 51 1015.3
20260506113049 48 0 0.0 0.0 0.00 0.00 0.00 49 1015.1
20260506111547 49 0 0.0 0.0 0.00 0.00 0.00 47 1014.9
20260506104549 50 0 0.0 0.0 0.00 0.00 0.00 45 1014.4
20260506103049 51 0 0.0 1.0 0.00 0.00 0.00 42 1014.4
20260506101549 53 360 0.0 4.0 0.00 0.00 0.00 40 1014.3
20260506100049 56 360 1.0 4.0 0.00 0.00 0.00 44 1014.0
20260506094619 54 360 2.0 6.0 0.00 0.00 0.00 47 1014.0
20260506093053 52 0 0.0 2.0 0.00 0.00 0.00 45 1013.9
20260506091552 53 0 0.0 1.0 0.00 0.00 0.00 43 1013.9
20260506090052 54 360 1.0 3.0 0.00 0.00 0.00 42 1013.7
20260506084551 53 360 1.0 3.0 0.00 0.00 0.00 41 1013.8
20260506083105 53 360 1.0 4.0 0.00 0.00 0.00 41 1013.5
20260506081551 54 360 1.0 3.0 0.00 0.00 0.00 39 1013.6
20260506073050 54 0 0.0 0.0 0.00 0.00 0.00 38 1013.4
20260506071555 55 0 0.0 2.0 0.00 0.00 0.00 37 1013.4
20260506061550 60 0 0.0 1.0 0.00 0.00 0.00 35 1012.7
20260506060109 60 86 1.0 4.0 0.00 0.00 0.00 34 1012.8
20260506044605 60 0 0.0 0.0 0.00 0.00 0.00 36 1012.2
20260506043047 61 0 0.0 0.0 0.00 0.00 0.00 35 1012.0
20260506041555 62 0 0.0 2.0 0.00 0.00 0.00 35 1011.8
20260506040052 62 0 0.0 1.0 0.00 0.00 0.00 34 1011.5
20260506034549 63 0 0.0 0.0 0.00 0.00 0.00 33 1011.3
20260506033052 65 0 0.0 2.0 0.00 0.00 0.00 31 1011.0
20260506031557 66 0 0.0 2.0 0.00 0.00 0.00 31 1010.8
20260506030052 67 0 0.0 2.0 0.00 0.00 0.00 30 1010.4
20260506024559 68 0 0.0 1.0 0.00 0.00 0.00 30 1010.3
20260506023100 68 0 1.0 4.0 0.00 0.00 0.00 29 1010.0
20260506021556 69 174 2.0 7.0 0.00 0.00 0.00 29 1009.9
20260506020053 70 153 3.0 7.0 0.00 0.00 0.00 29 1009.7
20260506014558 71 212 4.0 8.0 0.00 0.00 0.00 28 1009.6
20260506013046 71 235 2.0 9.0 0.00 0.00 0.00 28 1009.5
20260506011549 72 192 3.0 8.0 0.00 0.00 0.00 28 1009.5
20260506010057 71 237 3.0 8.0 0.00 0.00 0.00 28 1009.5
20260506004553 71 241 3.0 8.0 0.00 0.00 0.00 28 1009.4
20260506003050 72 214 5.0 11.0 0.00 0.00 0.00 28 1009.4
20260506001551 72 217 4.0 9.0 0.00 0.00 0.00 29 1009.5
20260506000053 71 186 8.0 14.0 0.00 0.00 0.00 29 1009.3
20260505234554 71 293 6.0 12.0 0.00 0.00 0.00 29 1009.2
20260505233051 72 339 3.0 10.0 0.00 0.00 0.00 29 1009.2
20260505231600 72 239 4.0 11.0 0.00 0.00 0.00 30 1009.4
20260505230059 72 253 2.0 14.0 0.00 0.00 0.00 30 1009.6
20260505224553 71 227 5.0 10.0 0.00 0.00 0.00 31 1009.6